CW0561 Weather Reports


Display with metric or nautical units.
time (UTC)temp
F
wind
direction
speed
MPH
gust
MPH
rain 1hr
in
rain 24hr
in
rain mn
in
humidity
%
barometer
mb
20240417094544 46 315 0.0 0.0 0.00 0.00 0.00 94 995.3
20240417093544 46 310 0.0 8.0 0.00 0.00 0.00 93 995.4
20240417092544 46 355 0.0 9.0 0.00 0.00 0.00 94 995.2
20240417091544 47 335 0.0 11.0 0.00 0.00 0.00 93 995.2
20240417090544 47 24 0.0 12.0 0.00 0.00 0.00 93 995.1
20240417085544 47 336 0.0 9.0 0.00 0.00 0.00 93 995.1
20240417084544 47 9 5.0 12.0 0.00 0.00 0.00 93 995.1
20240417083544 47 360 12.0 12.0 0.00 0.00 0.00 93 995.0
20240417082544 47 350 8.0 11.0 0.00 0.00 0.00 93 995.0
20240417081544 47 17 0.0 8.0 0.00 0.00 0.00 93 995.0
20240417080544 47 22 3.0 8.0 0.00 0.00 0.00 93 994.9
20240417074544 47 355 0.0 9.0 0.00 0.00 0.00 92 995.0
20240417073544 47 360 0.0 6.0 0.00 0.00 0.00 92 995.1
20240417071544 48 32 8.0 12.0 0.00 0.00 0.00 91 995.1
20240417070544 48 333 5.0 8.0 0.00 0.00 0.00 90 995.2
20240417065544 48 43 0.0 9.0 0.00 0.00 0.00 90 995.4
20240417064544 48 340 2.0 12.0 0.00 0.00 0.00 89 995.4
20240417063544 48 32 5.0 12.0 0.00 0.00 0.00 89 995.4
20240417062544 49 22 5.0 12.0 0.00 0.00 0.00 89 995.5
20240417061544 49 27 0.0 17.0 0.00 0.00 0.00 89 995.6
20240417060544 49 41 2.0 14.0 0.00 0.00 0.00 89 995.7
20240417054545 49 143 6.0 18.0 0.00 0.00 0.00 89 996.0
20240417053544 49 88 11.0 20.0 0.00 0.00 0.00 88 996.1
20240417052544 49 63 8.0 18.0 0.00 0.00 0.00 88 996.1
20240417051544 49 81 9.0 20.0 0.00 0.00 0.00 88 996.3
20240417050544 49 52 5.0 17.0 0.00 0.00 0.00 88 996.4
20240417045545 49 61 9.0 20.0 0.00 0.00 0.00 88 996.6
20240417044544 49 19 3.0 20.0 0.00 0.00 0.00 88 996.8
20240417043545 49 109 0.0 17.0 0.00 0.00 0.00 88 997.2
20240417040544 49 64 12.0 21.0 0.00 0.00 0.00 87 997.4
20240417035544 50 96 14.0 21.0 0.00 0.00 0.00 86 997.5
20240417034544 50 74 12.0 23.0 0.00 0.00 0.00 85 997.8
20240417032544 50 79 5.0 23.0 0.00 0.00 0.00 87 998.0
20240417031544 50 75 0.0 23.0 0.00 0.00 0.00 87 997.3
20240417030544 50 63 11.0 23.0 0.00 0.00 0.00 87 997.4
20240417025544 50 70 0.0 21.0 0.00 0.00 0.00 88 997.6
20240417024545 50 92 6.0 18.0 0.00 0.00 0.00 88 997.6
20240417023544 50 71 0.0 23.0 0.00 0.00 0.00 88 997.7
20240417021545 50 118 9.0 23.0 0.00 0.00 0.00 89 998.2
20240417020545 50 165 9.0 24.0 0.00 0.00 0.00 89 998.2
20240417015545 50 121 11.0 24.0 0.00 0.00 0.00 89 998.2
20240417014545 50 113 11.0 32.0 0.00 0.00 0.00 89 998.3
20240417013545 50 104 8.0 33.0 0.00 0.00 0.00 89 998.1
20240417012545 50 80 15.0 33.0 0.00 0.00 0.00 88 998.0
20240417010545 51 76 6.0 26.0 0.00 0.00 0.00 85 999.1
20240417005545 51 122 8.0 17.0 0.00 0.00 0.00 85 999.6
20240417002545 51 91 6.0 35.0 0.00 0.00 0.00 85 997.9
20240417001545 50 136 11.0 33.0 0.00 0.00 0.00 86 997.9
20240416235545 50 107 12.0 24.0 0.00 0.00 0.00 87 998.0
20240416232545 49 53 9.0 27.0 0.00 0.00 0.00 89 997.2
20240416231545 48 104 6.0 33.0 0.00 0.00 0.00 91 998.2
20240416230545 48 43 24.0 26.0 0.00 0.00 0.00 92 998.2
20240416225545 47 65 11.0 26.0 0.00 0.00 0.00 93 998.2
20240416223545 47 52 15.0 23.0 0.00 0.00 0.00 93 999.1
20240416222545 46 52 11.0 36.0 0.00 0.00 0.00 93 998.2
20240416220545 45 41 6.0 18.0 0.00 0.00 0.00 93 999.0
20240416215545 45 34 6.0 17.0 0.00 0.00 0.00 93 1000.5
20240416214545 45 46 0.0 12.0 0.00 0.00 0.00 93 1001.1
20240416213545 45 343 5.0 12.0 0.00 0.00 0.00 92 1001.5
20240416212545 45 40 3.0 11.0 0.00 0.00 0.00 92 1001.4
20240416211545 45 355 0.0 8.0 0.00 0.00 0.00 92 1002.0
20240416205545 45 236 0.0 0.0 0.00 0.00 0.00 91 1003.7
20240416204545 45 274 0.0 8.0 0.00 0.00 0.00 91 1003.7
20240416203545 45 235 3.0 18.0 0.00 0.00 0.00 90 1003.5
20240416201545 45 45 8.0 14.0 0.00 0.00 0.00 87 1001.6
20240416200545 46 89 5.0 15.0 0.00 0.00 0.00 86 1002.1
20240416195545 46 76 11.0 23.0 0.00 0.00 0.00 85 1001.9
20240416194545 46 73 8.0 21.0 0.00 0.00 0.00 84 1001.7
20240416193545 46 72 9.0 20.0 0.00 0.00 0.00 84 1002.5
20240416192545 46 55 3.0 27.0 0.00 0.00 0.00 83 1001.6
20240416190545 45 71 20.0 27.0 0.00 0.00 0.00 86 1001.9
20240416185545 45 85 0.0 29.0 0.00 0.00 0.00 89 1002.5
20240416184545 45 58 23.0 36.0 0.00 0.00 0.00 89 1002.4
20240416183545 45 64 15.0 32.0 0.00 0.00 0.00 89 1003.8
20240416182545 45 28 15.0 29.0 0.00 0.00 0.00 89 1003.1
20240416181545 45 89 29.0 30.0 0.00 0.00 0.00 89 1003.9
20240416180545 45 142 8.0 26.0 0.00 0.00 0.00 90 1004.8
20240416175546 45 62 6.0 20.0 0.00 0.00 0.00 90 1004.8
20240416174546 45 51 6.0 23.0 0.00 0.00 0.00 90 1004.8
20240416173545 45 65 8.0 21.0 0.00 0.00 0.00 90 1005.3
20240416172545 45 113 12.0 18.0 0.00 0.00 0.00 90 1006.0
20240416171545 45 84 12.0 18.0 0.00 0.00 0.00 89 1006.3
20240416170545 45 86 9.0 23.0 0.00 0.00 0.00 88 1006.8
20240416165545 46 101 3.0 23.0 0.00 0.00 0.00 87 1007.7
20240416164546 46 78 5.0 23.0 0.00 0.00 0.00 85 1007.8
20240416163545 46 116 8.0 12.0 0.00 0.00 0.00 83 1008.1
20240416162545 46 111 0.0 12.0 0.00 0.00 0.00 82 1007.7
20240416161546 46 70 9.0 18.0 0.00 0.00 0.00 80 1007.5
20240416160545 47 61 0.0 6.0 0.00 0.00 0.00 78 1008.2
20240416154545 48 92 0.0 17.0 0.00 0.00 0.00 71 1008.5
20240416153545 49 111 0.0 20.0 0.00 0.00 0.00 68 1008.4
20240416152546 49 128 9.0 23.0 0.00 0.00 0.00 64 1008.4
20240416151546 50 137 12.0 29.0 0.00 0.00 0.00 58 1008.0
20240416150545 50 119 9.0 24.0 0.00 0.00 0.00 58 1007.8
20240416144546 50 109 8.0 23.0 0.00 0.00 0.00 58 1006.9
20240416143545 51 40 11.0 27.0 0.00 0.00 0.00 57 1007.8
20240416142545 51 92 12.0 23.0 0.00 0.00 0.00 57 1008.4
20240416141546 51 144 8.0 20.0 0.00 0.00 0.00 55 1008.8
20240416140546 52 110 14.0 20.0 0.00 0.00 0.00 50 1008.9
20240416134546 52 126 23.0 26.0 0.00 0.00 0.00 49 1009.4
20240416133545 52 82 17.0 33.0 0.00 0.00 0.00 49 1008.9
20240416132546 52 155 11.0 27.0 0.00 0.00 0.00 49 1009.5
20240416131545 52 135 0.0 21.0 0.00 0.00 0.00 50 1009.4
20240416130545 52 121 11.0 32.0 0.00 0.00 0.00 50 1009.3
20240416125545 52 80 6.0 35.0 0.00 0.00 0.00 51 1009.2
20240416124545 52 44 9.0 27.0 0.00 0.00 0.00 51 1009.6
20240416123547 52 120 23.0 33.0 0.00 0.00 0.00 50 1009.7
20240416122546 52 126 14.0 32.0 0.00 0.00 0.00 50 1009.8
20240416120546 53 116 14.0 33.0 0.00 0.00 0.00 49 1010.2
20240416115546 52 99 29.0 32.0 0.00 0.00 0.00 50 1010.1
20240416114546 52 168 3.0 26.0 0.00 0.00 0.00 51 1009.5
20240416113546 52 64 9.0 24.0 0.00 0.00 0.00 52 1009.6
20240416112546 53 134 12.0 27.0 0.00 0.00 0.00 52 1009.7
20240416111546 53 145 18.0 35.0 0.00 0.00 0.00 51 1009.5
20240416110545 53 63 9.0 36.0 0.00 0.00 0.00 51 1009.4
20240416105546 54 124 18.0 29.0 0.00 0.00 0.00 51 1009.5
20240416104546 54 96 9.0 21.0 0.00 0.00 0.00 50 1009.3
20240416103546 54 101 8.0 21.0 0.00 0.00 0.00 49 1009.5
20240416102546 54 105 9.0 24.0 0.00 0.00 0.00 48 1009.8
20240416101546 55 95 0.0 24.0 0.00 0.00 0.00 47 1010.0
20240416095546 55 59 3.0 29.0 0.00 0.00 0.00 44 1010.0